Location: Bailleul
(50.3375°N, 2.8513°E)
Time: 09:16:06
(UTC+00:00)

FALCON 9 DEB - Pass Details

Date: 16 June 2021
Orbit: 358 x 373 km, 53.0° (Epoch: 01 August)

Event Time Altitude Azimuth Distance (km) Brightness Sun altitude
Exits shadow 23:19:44 17° 241° (WSW) 1,056 4.9 -16.0°
Maximum altitude 23:22:01 77° 157° (SSE) 395 2.7 -16.0°
Drops below altitude 10° 23:25:08 10° 71° (ENE) 1,399 5.9 -16.1°
Sets 23:27:11 0° 70° (ENE) 2,250 6.9 -16.1°
